Regional Weather Roundup
Issued by NWS

Home | Current Version | Previous Version | Graphics & Text | Print | Product List | Glossary On
Versions: 1 2 3 4 5 6 7 8 9 10 11 12 13 14 15 16 17 18 19 20 21 22 23 24 25 26 27
000
ASUS45 KBOU 100707
RWRCO

WEATHER ROUNDUP FOR COLORADO
NATIONAL WEATHER SERVICE DENVER/BOULDER CO
1200 AM MST SAT DEC 10 2016

NOTE: "FAIR" INDICATES FEW OR NO CLOUDS BELOW 12000 FEET WITH NO
SIGNIFICANT WEATHER AND/OR OBSTRUCTIONS TO VISIBILITY.

COZ001>005-013-030-031-100800-
...NORTHWEST COLORADO...

CITY           SKY/WX    TMP DP  RH WIND       PRES   REMARKS
CRAIG          FAIR      28  23  81 E6        30.13S WCI  22
HAYDEN         MOCLDY    28  21  74 E7        30.12S WCI  21
MEEKER         FAIR      31  22  69 NE6       30.14F WCI  25
MOUNT WERNER   NOT AVBL
STEAMBOAT SPGS MOCLDY    24  23  96 CALM      30.14S
WALDEN           N/A     34  21  60 SW14G20   30.10F WCI  24
$$

COZ006>008-011-100800-
...WEST CENTRAL VALLEYS...

CITY           SKY/WX    TMP DP  RH WIND       PRES   REMARKS
GRAND JUNCTION FAIR      21  18  88 E3        30.23F
MONTROSE       FAIR      27  22  81 SE7       30.25S WCI  19
EAGLE          FAIR      22  21  96 CALM      30.20F
RIFLE          FAIR      23  20  88 CALM      30.23F
DELTA          NOT AVBL
NUCLA          FAIR      32  23  69 SE6       30.27S WCI  26
$$

COZ017>023-064>068-100800-
...SOUTHWEST COLORADO...

CITY           SKY/WX    TMP DP  RH WIND       PRES   REMARKS
DURANGO        FAIR      24  17  74 N5        30.28F WCI  18
CORTEZ         FAIR      24  22  91 CALM      30.27S
PAGOSA SPRINGS FAIR      21  17  84 CALM      30.30S
TELLURIDE      FAIR      32  19  60 S3        30.29F
WOLF CREEK PAS FAIR      18  18 100 SW12      30.37R WCI   5
$$

COZ009-010-012-014-032>034-037-058>063-100800-
...CENTRAL COLORADO...

CITY           SKY/WX    TMP DP  RH WIND       PRES   REMARKS
ASPEN          MOCLDY    27  23  85 S9        30.19F WCI  18
BUENA VISTA    FAIR      39  17  41 W16G23    30.15F
COPPER MTN     LGT SNOW  27  16  63 MISG      30.20F
BERTHOUD PASS  CLOUDY    18   5  57 NW35      30.14F HAZE    WCI  -3
COTTONWOOD PAS FAIR      36  14  41 W21G43    30.15F
GUNNISON       FAIR      12  10  92 CALM      30.28S
KREMMLING      FAIR      41  25  52 SW8G18    30.14F
LEADVILLE      FAIR      27  15  61 NE12      30.18F WCI  17
MONARCH PASS     N/A     19  18  93 W30       30.35S WCI   0
SALIDA         FAIR      44  17  34 SW24G30   30.21S
SUNLIGHT       FAIR      21  19  93 SW18G29   30.24F WCI   6
WILKERSON PASS FAIR      27  16  63 W18G31    30.14F WCI  13
$$

COZ069>075-100800-
...SAN LUIS VALLEY/SANGRE DE CRISTO MOUNTAINS...

CITY           SKY/WX    TMP DP  RH WIND       PRES   REMARKS
ALAMOSA        FAIR      12   9  87 W5        30.23F WCI   4
LA VETA PASS   FAIR      27  19  74 NE24G37   30.19F WCI  12
SAGUACHE       FAIR      18  12  79 NW6       30.26R WCI   9
$$

COZ035-036-038>040-100800-
...NORTHERN COLORADO FRONT RANGE...

CITY           SKY/WX    TMP DP  RH WIND       PRES   REMARKS
DENVER INTL AP MOCLDY    21  17  84 SW10      30.05F WCI  10
DMNS CITY PARK   N/A     24  19  80 SW5       30.06F WCI  18
AURORA         MOCLDY    23  21  93 CALM      30.06F
FRONT RANGE AP FAIR      25  23  93 W5        30.06F WCI  19
ERIE MUNI ARPT FAIR      19  17  91 W3        30.07F
BOULDER MUN AP CLOUDY    25  21  86 CALM      30.06F
CENTENNIAL     MOCLDY    25  21  85 S3        30.05F
BROOMFIELD     MOCLDY    25  21  86 S3        30.05F
FORT COLLINS   FAIR      19  16  86 CALM      30.08F
LONGMONT       FAIR      20  17  86 W3        30.09F
$$

COZ041-046-047-076>085-087-088-100800-
...PIKES PEAK/PALMER DIVIDE AND SOUTHERN FOOTHILLS...

CITY           SKY/WX    TMP DP  RH WIND       PRES   REMARKS
COLO. SPRINGS  FAIR      26  18  71 CALM      30.11S
A. F. ACADEMY  FAIR      23  19  86 W13G18    30.08F WCI  11
SCHRIEVER AFB  NOT AVBL
ELLICOTT       FAIR     N/A N/A N/A N3        30.08F
FALCON         FAIR      22  15  75 W6        30.09F WCI  14
FORT CARSON    FAIR      22  13  68 N5        30.08F WCI  16
LIMON          FAIR      14  12  92 N6        30.10F WCI   5
MONUMENT HILL  FAIR      30  19  64 S7        30.09S WCI  23
TRINIDAD       FAIR      38  18  44 W20       30.10F
$$

COZ042>045-048>051-090-091-100800-
...NORTHEAST COLORADO...

CITY           SKY/WX    TMP DP  RH WIND       PRES   REMARKS
GREELEY ARPT   FAIR      20  16  84 CALM      30.08F
AKRON          FAIR      20  15  81 SE13      30.06F WCI   7
BURLINGTON     CLOUDY    26  19  74 S13       30.13F WCI  15
WRAY           NOT AVBL
STERLING       MOCLDY    19  16  86 NE5       30.11F WCI  13
HOLYOKE        FAIR      23  18  80 E5        30.15F WCI  17
FORT MORGAN    FAIR      18  14  86 NE7       30.09F WCI   8
$$

COZ086-089-092>099-100800-
...SOUTHEAST COLORADO...

CITY           SKY/WX    TMP DP  RH WIND       PRES   REMARKS
PUEBLO         FAIR      21  12  68 W3        30.12F
LA JUNTA       FAIR      21  13  71 NW6       30.10F WCI  13
LAMAR          FAIR      25  19  78 E10       30.11F WCI  15
SPRINGFIELD      N/A     21  19  92 S5        30.11F WCI  15
$$




USA.gov is the U.S. government's official web portal to all federal, state and local government web resources and services.